Regional Weather Roundup
Issued by NWS

Home | Current Version | Previous Version | Text Only | Print | Product List | Glossary On
Versions: 1 2 3 4 5 6 7 8 9 10 11 12 13 14 15 16 17 18 19 20 21 22 23 24 25 26 27 28 29 30 31 32 33 34 35 36 37 38 39 40 41 42 43 44 45 46 47 48 49 50
000
ASHW40 PHFO 011210
RWRHI

WEATHER ROUNDUP FOR HAWAII
NATIONAL WEATHER SERVICE HONOLULU HI
200 AM HST FRI AUG 01 2014

THIS IS AN AUTOMATED REPORT THAT HAS NOT BEEN QUALITY CONTROLLED.

NOTE..."FAIR" INDICATES FEW OR NO CLOUDS BELOW 12,000 FEET WITH NO
SIGNIFICANT WEATHER AND/OR OBSTRUCTIONS TO VISIBILITY.

* - THESE SITES REPORT LIMITED FIELDS

HIZ001>004-011300-
KAUAI-NIIHAU-

CITY           SKY/WX    TMP DP  RH WIND       PRES   REMARKS
LIHUE APT      PTCLDY    77  68  73 E12       30.01F
PORT ALLEN*      N/A     77 N/A N/A E12         N/A
POIPU*           N/A     77 N/A N/A NE7G15      N/A
PRINCEVILLE*   NOT AVBL
KOKOLE POINT*  NOT AVBL
MOLOAA DAIRY*  NOT AVBL
WAIMEA HTS*    NOT AVBL
PUU OPAE*      NOT AVBL
PUU LUA*       NOT AVBL
MAKAHA RIDGE*  NOT AVBL
$$

HIZ005>011-011300-
OAHU-

CITY           SKY/WX    TMP DP  RH WIND       PRES   REMARKS
HONOLULU       PTCLDY    79  68  69 NE10      29.97F
KALAELOA       CLEAR     74  66  76 CALM      29.98F
KANEOHE MCB    PTCLDY   N/A N/A N/A E12G20    29.98F
WHEELER FIELD  FAIR      74  66  77 NE1       29.99F
BELLOWS*       NOT AVBL
KAHUKU*        NOT AVBL
WHEELER*       NOT AVBL
WAIANAE HARBOR NOT AVBL
DILLINGHAM*      N/A     70  66  88 CALM        N/A
KAHUKU TRN*      N/A     75  70  83 E8G18       N/A
KAWAILOA*      NOT AVBL
KII*             N/A     79  72  78 CALM        N/A
MAKUA RANGE*     N/A     79  66  65 E6G12       N/A
OAHU FOREST NW NOT AVBL
SCHOFIELD BRK*   N/A     70  66  88 MISG        N/A
SCHOFIELD S*   NOT AVBL
WAIANAE VLY*   NOT AVBL
KUAOKALA*      NOT AVBL
HONOULIUULI*   NOT AVBL
MOKUOLOE IS*     N/A    N/A N/A N/A MISG        N/A
PALEHUA*       NOT AVBL
WAIAWA PHB*    NOT AVBL
$$

HIZ012>013-011300-
MOLOKAI-

CITY           SKY/WX    TMP DP  RH WIND       PRES   REMARKS
MOLOKAI AIRPT  CLEAR     75  71  87 NE9       29.98F
KALAUPAPA      NOT AVBL
MAKAPULAPAI*   NOT AVBL
MOLOKAI 1*     NOT AVBL
PUU ALII*      NOT AVBL
$$

HIZ016-011300-
KAHOOLAWE-

CITY           SKY/WX    TMP DP  RH WIND       PRES   REMARKS
KAHOOLAWE*     NOT AVBL
HAKIOAWA*      NOT AVBL
HONOKANAIA*      N/A     79  68  69 NE15G29   29.98F
KANELOA*         N/A     73  68  83 E17G32    30.07F
KEALIALALO*    NOT AVBL
LUA MAKIKA*    NOT AVBL
$$

HIZ014>015-011300-
LANAI-

CITY           SKY/WX    TMP DP  RH WIND       PRES   REMARKS
LANAI CITY     FAIR      68  66  93 E3        30.02F
LANAI 1*       NOT AVBL
$$

HIZ017>028-011300-
MAUI-

CITY           SKY/WX    TMP DP  RH WIND       PRES   REMARKS
KAHULUI        MOCLDY    77  68  73 NE10      29.97F
KAPALUA-W MAUI NOT AVBL
HANA AIRPORT   CLOUDY    77  68  73 SE3       30.02S
HANA*          NOT AVBL
HALEAKALA SUMM   N/A     46  36  66 SE17        N/A
MAALAEA BAY*   NOT AVBL
HALEAKALA*     NOT AVBL
KAUPO GAP*     NOT AVBL
KULA 1*          N/A     56  36  47 NE3         N/A
$$

HIZ023>026-011300-
BIG ISLAND OF HAWAII COAST AND LOWER SLOPES-

CITY           SKY/WX    TMP DP  RH WIND       PRES   REMARKS
KAILUA KONA    CLEAR     78  67  68 SE7       29.94F
HILO           CLOUDY    75  72  90 W5        29.99S
HONOKAA*       NOT AVBL
KAWAIHAE MWT*  NOT AVBL
KAWAIHAE*        N/A     81 N/A N/A NE5         N/A
SOUTH POINT*   NOT AVBL
UPOLU AIRPORT* NOT AVBL
KAMUELA*       MOSUNNY   64  63  94 NE17      30.07S
HAKALAU*         N/A     51  51  99 SW2         N/A
KALOKO-HONOKO* NOT AVBL
PALI 2*          N/A     63  57  82 N15G29      N/A
KEALAKOMO*       N/A     77  68  73 NE13G21     N/A
KAUPULEHU*     NOT AVBL
KAPAPALA*        N/A     64  61  90 CALM        N/A
LOWER KAHUKU*  NOT AVBL
PUHE CS*       NOT AVBL
PUHO CS*       NOT AVBL
PTA KEAMUKU*     N/A     61  57  88 E5          N/A
WAIKOLOA*      NOT AVBL
$$

HIZ027>028-011300-
BIG ISLAND OF HAWAII INTERIOR AND SUMMMITS-

CITY           SKY/WX    TMP DP  RH WIND       PRES   REMARKS
BRADSHAW FIELD CLEAR     55  46  71 W2        30.30F
MK VISITOR CEN NOT AVBL
MAUNA KEA*       N/A     36  36 100 S16         N/A  WCI  26
MAUNA LOA*     NOT AVBL
MAUNA LOA 1*   NOT AVBL
PTA KIPUKA*      N/A     52  50  93 SE3         N/A
PTA RANGE 17*    N/A     59  54  82 SE5G17      N/A
PTA WEST*        N/A     59  55  88 S1G8        N/A
NENE CABIN*    NOT AVBL
AHUMOA*        NOT AVBL
PTA PORTABLE*  NOT AVBL
PUU MALI*      NOT AVBL
$$

HIC003-011300-
NORTHWEST ISLANDS-

CITY           SKY/WX    TMP DP  RH WIND       PRES   REMARKS
MIDWAY ISLAND  CLOUDY    79  73  83 E8        30.03F
MIDWAY NOS*    NOT AVBL
FRENCH FRIGATE NOT AVBL
$$

PHZ110>124-180-011300-
BUOY REPORTS

STATION/POSITION TIME  TEMP    WIND        PRES    WAVE   SWELL
                       AIR SEA DIR/SP/G            HT/PER HT/DIR
                 (UTC) (F)     (DEG/KT/KT) (MB)    (FT/S) (FT/D)
BUOY 51001       NOT AVBL
BUOY 51101       NOT AVBL
BUOY 51100       1200   77 78   90/ 14/ 16 1016.5F
BUOY 51003       1100   81 81   80/ 14/ 16 1015.2F   6/ 8   3
BUOY 51004       1128   79 80   80/ 19/ 25 1012.0F   8/ 8   3/140
BARBERS PT BUOY  NOT AVBL
WAIMEA BAY BUOY  1200      80                N/A     3/ 5
KAILUA BAY BUOY  1200      80                N/A     5/ 6   2/120
LANAI BUOY       1200      81                N/A     3/17   2/200
BARBERS PT 2     1200      80                N/A     3/15   2/210
PAUWELA MAUI     1200      79                N/A     6/ 9
HILO             NOT AVBL
KANEOHE BAY BUOY 1200      79                N/A     4/ 5
HANALEI KAUAI    NOT AVBL
KAHULUI HARBOR   1200   78 80   40/ 12/ 16 1014.8F
HONOLULU HARBOR  1200   79     110/  4/  7 1015.0F
KILO NALU        NOT AVBL
HILO HARBOR      1200   75      CALM  /  2 1014.9F
MOKUOLOE         1200      82              1015.5F
NAWILIWILI       1200      83                N/A
WHOTS BUOY       NOT AVBL
BUOY 51028       NOT AVBL
$$

......................KEY........................................
  SKY/WX - SKY CONDITIONS/PRESENT WEATHER
  TMP    - TEMPERATURE IN FAHRENHEIT
  DWPT   - DEWPOINT IN FAHRENHEIT
  RH     - RELATIVE HUMIDITY IN PERCENT
  WIND   - DIRECTION AND SPEED /MPH FOR ISLANDS...KTS FOR BUOYS/
  PRES   - MEAN SEA LEVEL PRESSURE IN INCHES OF HG
  VSB    - VISIBILITY IN MILES
  HX     - HEAT INDEX
  WCI    - WIND CHILL INDEX
  VRB    - VARIABLE WIND DIRECTION
  N/A    - NOT AVAILABLE



USA.gov is the U.S. government's official web portal to all federal, state and local government web resources and services.